• Processing (Info)

  • MPEC 2024-P98 : 2024 NO5

    The following Minor Planet Electronic Circular may be linked-to from your own Web pages, but must not otherwise be redistributed electronically.

    A form allowing access to any MPEC is at the bottom of this page.


    Read MPEC 2024-P97 Read MPEC 2024-P99


    M.P.E.C. 2024-P98                                Issued 2024 August 8, 11:07 UT
    
         The Minor Planet Electronic Circulars contain information on unusual
             minor planets, routine data on comets and natural satellites,
             and occasional editorial announcements.  They are published
        on behalf of Division F of the International Astronomical Union by the
              Minor Planet Center, Smithsonian Astrophysical Observatory,
                              Cambridge, MA 02138, U.S.A.
    			  
                 Prepared using the Tamkin Foundation Computer Network
    
                                  MPC@CFA.HARVARD.EDU
                URL https://www.minorplanetcenter.net/    ISSN 1523-6714
    
                                    2024 NO5                                 
    
    
    Observations:
         K24N05O  C2021 05 19.58638123 08 32.674+03 04 03.78         23.03GVEP098F51
         K24N05O  C2021 05 19.59178623 08 33.657+03 04 08.69         22.71GVEP098F51
         K24N05O  C2021 05 19.59717423 08 34.650+03 04 14.35         21.66GVEP098F51
         K24N05O  C2023 06 29.56616323 55 34.820+12 50 38.50         21.86GVEP098F51
         K24N05O  C2023 06 29.57604723 55 36.832+12 50 47.88         21.71GVEP098F51
         K24N05O  C2023 06 29.58592723 55 38.848+12 50 57.36         21.27GVEP098F51
         K24N05O  C2023 07 01.57520800 02 44.358+13 23 44.25         22.22GVEP098F52
         K24N05O  C2023 07 01.58468700 02 46.379+13 23 53.91         22.01GVEP098F52
         K24N05O  C2023 07 01.59418200 02 48.379+13 24 02.96         22.71GVEP098F52
         K24N05O  C2024 07 02.50958222 55 48.140+13 48 30.50         21.32GVEP098F51
         K24N05O  C2024 07 02.52342722 55 49.853+13 48 44.35         22.12GVEP098F51
         K24N05O  C2024 07 03.54509822 58 02.808+14 05 34.84         21.63GVEP098F52
         K24N05O  C2024 07 03.55757522 58 04.358+14 05 47.27         21.95GVEP098F52
         K24N05O  C2024 07 05.50902623 02 24.713+14 38 08.60         21.34GVEP098F52
         K24N05O  C2024 07 05.52160223 02 26.323+14 38 21.73         21.84GVEP098F52
         K24N05O  C2024 07 09.53803923 11 50.106+15 45 55.24         21.55GVEP098F52
         K24N05O  C2024 07 09.54926323 11 51.667+15 46 06.95         21.26GVEP098F52
         K24N05O  C2024 07 09.56051623 11 53.173+15 46 18.75         21.43GVEP098F52
         K24N05O  C2024 07 09.57180523 11 54.757+15 46 30.16         21.37GVEP098F52
         K24N05O*!C2024 07 15.38107 23 27 02.95 +17 27 12.6          21.1 iXEP098W84
         K24N05O !C2024 07 15.38318 23 27 03.31 +17 27 14.9          21.2 iXEP098W84
         K24N05O !C2024 07 15.38529 23 27 03.64 +17 27 17.1          21.2 iXEP098W84
         K24N05O !C2024 07 15.38740 23 27 03.99 +17 27 19.4          21.0 iXEP098W84
         K24N05O  C2024 08 06.55483001 07 57.672+24 24 02.60         19.88wXEP098F52
         K24N05O  C2024 08 06.56735301 08 03.246+24 24 16.23         20.06wXEP098F52
         K24N05O  C2024 08 06.57995001 08 08.862+24 24 29.88         20.07wXEP098F52
         K24N05O KC2024 08 06.99228101 11 23.681+24 31 15.06         19.0 GVEP098J95
         K24N05O KC2024 08 06.99513301 11 24.94 +24 31 23.8          19.8 GXEP098L01
         K24N05O KC2024 08 06.99543901 11 25.145+24 31 18.34         19.9 GVEP098J95
         K24N05O KC2024 08 06.99858601 11 26.638+24 31 21.76         19.0 GVEP098J95
         K24N05O KC2024 08 07.00002301 11 27.22 +24 31 29.4          19.7 GXEP098L01
         K24N05O KC2024 08 07.00173201 11 28.085+24 31 24.74         19.5 GVEP098J95
         K24N05O KC2024 08 07.00808401 11 30.98 +24 31 38.2          19.2 GXEP098L01
         K24N05O KC2024 08 07.02086501 11 37.04 +24 31 52.3          19.5 GVEP098104
         K24N05O KC2024 08 07.02588601 11 39.40 +24 31 58.1          19.0 GVEP098104
         K24N05O KC2024 08 07.03090601 11 41.70 +24 32 03.2          18.9 GVEP098104
         K24N05O $C2024 08 07.17691001 12 50.886+24 34 48.56         19.0 GVEP098J04
         K24N05O $C2024 08 07.17795401 12 51.376+24 34 49.33               VEP098J04
         K24N05O $C2024 08 07.17879501 12 51.794+24 34 50.30               VEP098J04
         K24N05O  C2024 08 07.35375301 14 17.480+24 37 42.24         19.5 GVEP098H01
         K24N05O  C2024 08 07.35780201 14 19.399+24 37 46.65         19.5 GVEP098H01
         K24N05O KC2024 08 07.36443201 14 22.49 +24 37 53.5          19.5 GXEP098858
         K24N05O  C2024 08 07.36750601 14 24.005+24 37 57.15         19.5 GVEP098H01
         K24N05O KC2024 08 07.37127201 14 25.71 +24 38 00.7          19.6 GXEP098858
         K24N05O  C2024 08 07.37468101 14 27.392+24 38 04.84         19.4 GVEP098H01
         K24N05O KC2024 08 07.37817401 14 29.00 +24 38 08.0          19.7 GXEP098858
         K24N05O KB2024 08 07.84415 01 18 20.11 +24 45 39.9          19.8 GVEP098M75
         K24N05O KB2024 08 07.85834 01 18 27.24 +24 45 54.8          19.1 GVEP098M75
         K24N05O KB2024 08 07.87252 01 18 34.43 +24 46 10.1          19.1 GVEP098M75
         K24N05O 1C2024 08 07.92130 01 18 58.57 +24 47 01.6          19.2 GVEP098C40
         K24N05O 1C2024 08 07.93552 01 19 05.58 +24 47 17.6          19.8 GVEP098C40
         K24N05O KB2024 08 07.93950401 19 08.29 +24 47 13.9          19.5 GXEP098I93
         K24N05O KB2024 08 07.94160 01 19 08.92 +24 47 21.2          19.5 GXEP098M45
         K24N05O KB2024 08 07.94261901 19 09.85 +24 47 16.5          19.3 GXEP098I93
         K24N05O KB2024 08 07.94573201 19 11.39 +24 47 20.1          19.2 GXEP098I93
         K24N05O 1C2024 08 07.94955 01 19 12.55 +24 47 31.8          19.2 GVEP098C40
         K24N05O KB2024 08 07.95293 01 19 14.60 +24 47 32.9          19.7 GXEP098M45
    
    Observer details:
    104 San Marcello Pistoiese.  Observers P. Bacci, M. Maestripieri.  Measurers
        P. Bacci, L. Tesi, G. Fagioli.  0.60-m F4 Reflector + CCD.
    858 Tebbutt Observatory, Edgewood.  Observer F. B. Zoltowski.  0.51-m f/8.1
        Schmidt-Cassegrain + CCD.
    C40 Kuban State University Astrophysical Observatory.  Observers A. Ivanov, A.
        Barcov, V. Ivanov, V. Lysenko, N. Yakovenko, N. Ivanova, N. Gorbunov, G.
        Kurbatov, P. Shchukin, V. Roshchupko.  Measurer A. Ivanov.  0.51-m f/8
        reflector + CCD.
    F51 Pan-STARRS 1, Haleakala.  Observers J. Herman, T. Lowe, P. Minguez, A.
        Schultz, I. Smith.  Measurers K. Chambers, T. de Boer, J. Fairlamb, H.
        Gao, M. Huber, C.-C. Lin, E. Magnier, Y. Ramanjooloo, R. Wainscoat, R.
        Weryk.  1.8-m Ritchey-Chretien + CCD.
    F52 Pan-STARRS 2, Haleakala.  Observers J. Herman, T. Lowe, P. Minguez, A.
        Schultz, I. Smith.  Measurers K. Chambers, T. de Boer, J. Fairlamb, H.
        Gao, M. Huber, C.-C. Lin, E. Magnier, Y. Ramanjooloo, R. Wainscoat, R.
        Weryk.  1.8-m Ritchey-Chretien + CCD.
    H01 Magdalena Ridge Observatory, Socorro.  Observers W. H. Ryan, E. V. Ryan.
        Measurer W. H. Ryan.  2.4-m f/8.9 Ritchey-Chretien + CCD.
    I93 St Pardon de Conques.  Observer F. Losse.  0.40-m f/3.7 reflector + CMO.
    J04 ESA Optical Ground Station, Tenerife.  Observers P. Ruiz, M. Micheli, F.
        Ocana, L. Conversi.  Measurers F. Ocana, M. Micheli, R. Kresken.
        1.0-m f/4.4 reflector + CCD.
    J95 Great Shefford.  Observer P. Birtwhistle.  0.41-m f/6.3 Schmidt-Cassegrain
        + CCD.
    L01 Visnjan Observatory, Tican.  Observers K. Korlevic, L. Ivanovic, E.
        Matika, I. Novotny, I. Paleka, E. Pettarin, M. Spoler.  Measurer L.
        Ivanovic.  1.0-m f/2.9 reflector + CCD.
    M45 Starhopper Observatory, Sfantu Gheorghe.  Observer F. Ursache.  0.41-m
        f/7.5 reflector + CMO.
    M75 Online observatory, Peschany.  Observer A. V. Skachedub.  0.28-m f/2.2
        reflector + CMO.
    W84 Cerro Tololo-DECam.  Observer .  Measurer F. Valdes.  4.0-m CTIO reflector
        + DECam.
    
    Orbital elements:
    2024 NO5                                            PHA, Earth MOID = 0.0073 AU
    Epoch 2024 Oct. 17.0 TT = JDT 2460600.5                 Veres                   
    M 348.34560              (2000.0)            P               Q                  
    n   0.94866541     Peri.  287.78501     +0.06712402     -0.99447352             
    a   1.0257952      Node   157.88714     +0.97726284     +0.04922082             
    e   0.3780415      Incl.   12.38338     +0.20112610     +0.09273478             
    P   1.04           H   20.84          G   0.15           U   1                  
    Residuals in seconds of arc
    210519 F51  0.1+  0.0     240715 W84  0.2-  0.1-    240807 J04  0.3+  0.2-
    210519 F51  0.1-  0.1-    240715 W84  0.1+  0.1-    240807 H01  0.0   0.0
    210519 F51  0.1-  0.6+    240715 W84  0.0   0.1-    240807 H01  0.0   0.0
    230629 F51  0.2+  0.4+    240715 W84  0.2+  0.0     240807 858  0.1+  0.3+
    230629 F51  0.0   0.1-    240806 F52  0.1+  0.0     240807 H01  0.1+  0.0
    230629 F51  0.1-  0.4-    240806 F52  0.0   0.0     240807 858  0.2-  0.2+
    230701 F52  0.1+  0.0     240806 F52  0.1+  0.0     240807 H01  0.1-  0.0
    230701 F52  0.1+  0.2+    240806 J95  0.0   0.4+    240807 858  0.1+  0.1+
    230701 F52  0.2-  0.3-    240806 L01  0.0   0.1-    240807 M75  1.1-  0.4-
    240702 F51  0.0   0.1+    240806 J95  0.3-  0.2+    240807 M75  0.4-  0.6-
    240702 F51  0.0   0.1+    240806 J95  0.1-  0.2+    240807 M75  1.3+  0.4-
    240703 F52  0.1+  0.1+    240807 L01  0.0   0.1+    240807 C40 (0.3-  0.9-)
    240703 F52  0.0   0.0     240807 J95  0.6-  0.3-    240807 C40  0.7-  0.2+
    240705 F52  0.0   0.2-    240807 L01  0.0   0.0     240807 I93  0.4+  0.1+
    240705 F52  0.2-  0.2+    240807 104  0.2-  0.2-    240807 M45  0.3-  0.4+
    240709 F52  0.1+  0.0     240807 104  0.1+  0.1+    240807 I93  0.3+  0.5-
    240709 F52  0.2+  0.2+    240807 104  0.4-  0.3-    240807 I93  0.1-  0.3-
    240709 F52  0.5-  0.4+    240807 J04  0.2-  0.1+    240807 C40  0.4-  0.2-
    240709 F52  0.1-  0.2+    240807 J04  0.1-  0.3-    240807 M45  0.3+  0.2+
    
    Ephemeris:
    2024 NO5                 a,e,i = 1.03, 0.38, 12                  q = 0.6380
    Date    TT    R. A. (2000) Decl.     Delta      r    Elong.  Phase     V
    2024 07 09    23 10 31.4 +15 36 49   0.4442  1.2449   110.7    49.8    21.4
    ...
    2024 07 24    23 54 59.2 +20 03 51   0.3133  1.1732   112.8    53.0    20.6
    ...
    2024 08 01    00 31 33.9 +22 38 41   0.2491  1.1299   111.4    56.8    20.1
    ...
    2024 08 07    01 11 25.2 +24 31 48   0.2055  1.0953   108.0    61.7    19.8
    2024 08 08    01 19 36.1 +24 48 39   0.1988  1.0893   107.2    62.8    19.8
    2024 08 09    01 28 19.4 +25 04 23   0.1923  1.0834   106.2    64.0    19.7
    ...
    2024 08 15    02 33 58.9 +25 52 46   0.1586  1.0464    97.9    73.5    19.5
    ...
    2024 08 23    04 36 37.7 +22 14 44   0.1364  0.9949    79.3    93.0    19.8
    ...
    2024 09 07    07 49 18.9 +05 07 46   0.1892  0.8928    48.2   122.7    22.0
    
    M. P. C. Staff               (C) Copyright 2024 MPC           M.P.E.C. 2024-P98
    


    Read MPEC 2024-P97 Read MPEC 2024-P99


    MPEC number:

    Enter an MPEC number in one of the following forms:

    • 1997-B01 (the full form)
    • J97B01 (the packed version of the full form)
    • B01 (the abbreviated form)